Temperature
-1 -1 -1 -1 -1 -1 -1 -1 -1 -0 -0 -1 -1 -1 -1 -0 -0 -0 -0 -0 -0 -0 -0 -0 -0 -0 -0 0 0 0 0 0 -0 0 1 2 2 2 3 3 3 3 3
-1 -1 -2 -2 -2 -2 -1 -1 -1 -1 -1 -1 -1 -1 -1 -1 -1 -1 -1 -1 -1 -1 -1 -1 -1 -1 -1 -1 -0 -0 -0 -0 -0 -0 0 1 2 2 2 2 2 2 3
-2 -2 -2 -2 -2 -2 -2 -2 -2 -2 -2 -2 -2 -2 -2 -2 -2 -2 -2 -2 -2 -2 -2 -2 -1 -1 -1 -1 -1 -1 -1 -1 -1 -1 -1 0 1 1 1 2 2 2 2
-3 -3 -3 -3 -3 -3 -3 -3 -3 -3 -3 -3 -3 -3 -3 -3 -3 -2 -2 -3 -3 -3 -3 -2 -2 -2 -2 -2 -2 -2 -2 -2 -1 -1 -1 -1 -0 0 0 1 1 1 1
-3 -3 -3 -3 -4 -4 -4 -4 -4 -4 -4 -4 -4 -4 -4 -3 -3 -3 -3 -3 -3 -3 -3 -3 -3 -2 -2 -2 -2 -2 -2 -2 -2 -2 -2 -1 -1 -1 -0 -0 0 0 1
-4 -4 -4 -4 -4 -4 -4 -4 -5 -4 -4 -5 -5 -4 -4 -4 -4 -4 -4 -4 -4 -4 -4 -4 -3 -3 -3 -3 -3 -2 -2 -2 -2 -2 -2 -2 -1 -1 -1 -1 -1 -0 -0
-4 -5 -5 -5 -5 -5 -5 -5 -5 -5 -5 -5 -5 -5 -5 -5 -4 -4 -5 -5 -5 -5 -4 -4 -4 -4 -3 -3 -3 -3 -3 -3 -3 -3 -3 -2 -2 -1 -1 -1 -1 -1 -1
-5 -5 -5 -5 -6 -6 -6 -6 -6 -6 -6 -6 -6 -6 -6 -5 -5 -5 -5 -5 -5 -5 -5 -5 -4 -4 -4 -4 -4 -3 -3 -3 -3 -3 -3 -2 -2 -2 -2 -1 -1 -1 -1
-6 -6 -6 -6 -6 -6 -6 -6 -6 -6 -6 -6 -6 -6 -6 -6 -6 -6 -6 -6 -6 -6 -5 -5 -5 -5 -4 -4 -4 -4 -4 -3 -3 -3 -3 -3 -2 -2 -2 -2 -2 -2 -2
-7 -7 -7 -7 -7 -7 -7 -7 -7 -7 -7 -7 -7 -6 -6 -6 -6 -6 -7 -7 -7 -6 -6 -6 -5 -5 -5 -5 -5 -4 -4 -4 -4 -3 -3 -3 -3 -3 -2 -2 -3 -3 -3
-7 -7 -8 -8 -8 -8 -8 -8 -8 -8 -8 -7 -7 -7 -7 -7 -7 -7 -7 -7 -7 -7 -6 -6 -6 -5 -5 -5 -5 -5 -5 -4 -4 -4 -4 -4 -3 -3 -3 -3 -3 -3 -3
-8 -8 -8 -8 -8 -8 -8 -8 -8 -8 -8 -8 -8 -8 -8 -7 -7 -7 -7 -8 -8 -7 -7 -7 -6 -6 -6 -5 -5 -5 -5 -5 -5 -5 -4 -4 -4 -3 -3 -3 -3 -3 -3
-8 -9 -9 -9 -9 -9 -9 -9 -9 -9 -9 -9 -8 -8 -8 -8 -8 -8 -8 -8 -8 -8 -8 -7 -7 -7 -6 -6 -6 -6 -5 -5 -5 -5 -5 -4 -4 -4 -4 -4 -4 -4 -3
-9 -9 -9 -9 -9 -9 -9 -9 -9 -9 -9 -9 -9 -9 -9 -9 -9 -9 -9 -8 -8 -8 -8 -8 -8 -7 -7 -7 -6 -6 -6 -6 -6 -6 -5 -5 -5 -5 -4 -4 -4 -4 -4
-9 -9 -9 -9 -9 -9 -10 -10 -10 -9 -9 -10 -10 -10 -10 -9 -9 -9 -9 -9 -9 -9 -9 -8 -8 -8 -8 -7 -7 -7 -7 -6 -6 -6 -6 -6 -5 -5 -5 -5 -5 -5 -5
-10 -10 -10 -10 -10 -10 -10 -10 -10 -10 -10 -10 -10 -10 -10 -10 -10 -10 -9 -9 -9 -9 -9 -9 -9 -8 -8 -8 -8 -8 -7 -7 -7 -7 -6 -6 -6 -6 -5 -5 -5 -5 -5
-10 -10 -10 -10 -10 -10 -10 -10 -10 -10 -10 -10 -10 -10 -10 -10 -10 -10 -10 -9 -9 -9 -9 -9 -9 -9 -9 -8 -8 -8 -8 -8 -7 -7 -7 -7 -6 -6 -6 -6 -6 -6 -6
-10 -10 -11 -11 -11 -11 -11 -11 -11 -11 -10 -10 -10 -10 -10 -10 -10 -10 -10 -10 -10 -10 -10 -9 -9 -9 -9 -9 -9 -8 -8 -8 -8 -8 -8 -7 -7 -7 -6 -6 -6 -6 -6
-11 -11 -11 -11 -11 -11 -11 -11 -11 -11 -11 -11 -11 -10 -10 -10 -10 -10 -10 -10 -10 -10 -10 -10 -9 -9 -9 -9 -9 -9 -9 -9 -8 -8 -8 -8 -7 -7 -7 -7 -7 -7 -7
-11 -11 -11 -11 -11 -12 -12 -12 -12 -11 -11 -11 -11 -11 -11 -11 -11 -11 -11 -10 -10 -10 -10 -10 -10 -10 -9 -9 -9 -9 -9 -9 -9 -9 -8 -8 -8 -8 -7 -7 -7 -7 -7
-12 -12 -12 -12 -12 -12 -12 -12 -12 -12 -12 -12 -12 -12 -12 -12 -12 -11 -11 -11 -11 -11 -11 -11 -10 -10 -10 -9 -9 -9 -9 -9 -9 -9 -9 -8 -8 -8 -8 -8 -8 -8 -7
-12 -12 -12 -12 -12 -12 -12 -12 -12 -12 -12 -12 -12 -12 -12 -12 -12 -12 -12 -11 -11 -11 -11 -11 -11 -10 -10 -10 -10 -10 -10 -10 -9 -9 -9 -9 -9 -8 -8 -8 -8 -8 -8
-12 -12 -12 -12 -13 -12 -13 -13 -13 -13 -13 -13 -13 -12 -12 -12 -12 -12 -12 -12 -11 -11 -11 -11 -11 -11 -10 -10 -10 -10 -10 -10 -10 -10 -9 -9 -9 -9 -9 -9 -8 -8 -8
-13 -13 -13 -13 -13 -13 -13 -13 -13 -13 -13 -13 -13 -13 -13 -13 -12 -12 -12 -12 -11 -11 -11 -11 -11 -11 -11 -10 -10 -10 -10 -10 -10 -10 -10 -9 -9 -9 -9 -9 -9 -9 -9
-13 -13 -13 -13 -13 -13 -13 -13 -13 -13 -13 -13 -13 -13 -13 -13 -13 -12 -12 -12 -12 -11 -11 -11 -11 -11 -11 -11 -10 -10 -10 -10 -10 -10 -10 -10 -10 -9 -9 -9 -9 -9 -9
-14 -14 -14 -14 -14 -14 -14 -14 -14 -14 -14 -14 -14 -13 -13 -13 -13 -13 -13 -12 -12 -12 -12 -12 -11 -11 -11 -11 -10 -10 -10 -10 -10 -10 -10 -10 -10 -10 -9 -9 -9 -9 -9
Wind_Speed
3 3 3 3 3 3 4 4 4 5 5 5 6 6 6 6 6 6 6 6 7 6 6 7 7 7 5 5 5 6 6 7 9 8 7 7 8 7 7 8 8 8 8
3 3 4 3 4 4 5 5 5 6 6 6 6 6 7 7 7 7 7 7 7 8 8 8 8 7 7 6 6 7 7 7 8 9 8 7 9 8 8 7 7 7 8
3 3 4 4 4 5 5 5 5 6 6 6 6 7 7 7 7 8 8 8 8 8 9 9 9 8 8 7 7 7 7 7 7 8 8 7 7 7 8 7 7 7 8
4 4 4 5 5 6 6 6 6 6 6 7 7 7 7 8 8 8 8 8 9 9 9 9 9 9 9 9 8 9 8 8 8 8 8 8 7 7 7 6 6 6 6
4 5 5 5 5 6 6 6 6 6 7 7 7 8 8 7 8 8 8 9 9 9 9 10 10 10 11 10 8 9 8 8 8 8 8 8 8 6 7 6 7 6 6
5 5 5 5 6 6 6 6 7 7 7 7 8 8 8 7 8 10 10 9 9 10 10 10 10 11 11 12 13 12 11 10 10 9 9 9 10 9 8 7 7 6 6
5 5 5 6 6 7 7 7 7 7 7 8 9 9 9 9 10 11 12 11 11 10 11 10 9 9 11 10 11 12 13 14 14 12 12 12 11 10 9 9 9 9 9
5 6 6 6 7 7 7 7 8 7 8 8 9 9 9 10 11 12 11 11 11 11 11 11 11 11 10 10 10 11 11 12 13 13 13 13 12 11 10 10 10 9 9
5 6 6 7 7 7 8 8 8 8 8 9 9 10 10 10 11 12 11 9 10 11 11 11 12 11 12 12 11 11 12 11 12 14 16 15 15 15 13 9 8 8 8
6 6 7 7 8 8 9 8 8 8 9 9 9 10 11 11 12 12 12 8 9 9 10 11 12 13 13 12 11 11 12 11 10 10 12 13 14 14 13 12 9 9 7
5 6 7 7 8 8 8 8 8 8 8 9 10 10 10 11 12 13 14 9 9 9 9 9 9 12 14 14 13 11 12 11 10 10 10 10 10 9 9 10 10 9 9
5 6 6 7 7 7 7 8 8 8 8 9 9 9 8 9 11 12 14 14 12 11 10 9 9 12 13 14 12 12 13 11 9 9 9 9 8 8 7 8 10 10 11
5 6 6 6 6 6 7 7 7 7 7 7 8 8 7 7 8 13 14 15 15 11 10 12 13 13 13 12 14 13 11 9 9 9 10 9 8 8 7 6 7 8 9
5 6 5 5 6 6 5 6 6 7 7 7 8 8 8 8 8 8 8 9 12 11 10 11 14 14 13 12 11 10 9 9 9 9 9 8 7 7 7 6 6 6 6
5 5 5 5 5 5 6 6 7 8 9 9 8 8 8 9 9 11 10 9 9 9 9 8 8 8 8 8 8 8 8 8 8 8 8 8 7 7 7 6 6 6 7
4 5 4 4 4 5 5 6 8 10 12 14 13 12 10 12 14 14 14 14 14 12 9 8 9 9 9 9 8 8 8 8 8 8 8 8 8 7 7 6 6 7 8
4 5 4 4 4 5 5 5 6 7 8 10 11 11 12 12 13 14 14 14 14 12 9 9 9 9 9 9 8 8 8 8 7 7 8 8 8 8 7 7 7 7 7
4 5 5 4 4 5 5 5 5 6 6 6 7 10 11 11 12 12 12 10 9 9 8 9 9 9 8 8 8 7 7 7 7 7 8 8 8 8 8 8 8 8 7
4 4 4 4 4 5 5 5 5 5 5 6 6 7 9 10 11 11 9 7 7 7 7 8 8 8 8 8 7 7 7 7 7 7 8 8 8 8 8 8 8 9 8
3 5 5 4 4 4 5 5 5 5 5 5 6 6 6 6 6 6 6 6 6 7 7 7 7 8 8 7 7 7 7 7 7 7 7 7 7 7 8 8 8 7 7
4 4 6 5 4 4 5 5 5 5 5 5 6 7 8 6 6 6 6 5 6 6 6 6 6 7 7 6 6 7 8 7 7 7 7 7 7 7 7 7 7 7 7
4 4 4 4 4 4 5 5 5 5 6 6 6 7 9 6 5 5 5 6 6 6 6 6 6 6 6 6 6 6 7 7 7 7 7 7 7 7 7 7 7 7 7
4 4 4 4 4 6 6 5 5 5 6 6 6 6 6 5 5 6 6 6 6 6 6 6 6 6 6 6 7 6 7 7 7 7 7 7 7 7 7 7 8 8 8
4 4 4 4 4 4 5 5 5 5 6 6 6 6 6 6 6 6 6 6 6 6 6 6 6 8 9 8 7 7 8 9 9 9 10 9 8 7 7 7 8 8 8
4 4 4 4 4 5 5 5 5 6 6 6 6 6 6 6 6 6 6 6 7 6 7 8 7 7 9 10 9 8 10 11 11 9 9 8 8 8 8 8 8 7 7
4 4 4 4 4 5 5 5 5 6 6 6 6 6 6 6 6 6 6 6 6 6 7 7 8 9 10 9 9 10 10 10 10 10 8 6 7 7 7 7 8 7 7
Wind_Direction
225 230 235 239 244 250 251 257 264 267 263 261 262 262 263 263 262 258 257 257 258 259 255 256 261 261 257 254 253 251 250 248 256 266 269 275 272 276 277 268 267 265 265
233 236 241 245 248 253 256 259 262 265 265 263 260 257 257 256 255 252 255 255 254 256 255 253 257 257 254 253 252 251 252 250 253 263 268 271 271 268 269 264 266 263 264
232 238 244 249 252 257 260 260 258 259 262 262 260 256 256 255 253 252 252 253 254 255 255 253 253 253 253 253 251 251 252 253 252 258 266 269 273 268 268 266 263 262 263
234 240 247 252 255 260 262 259 256 256 256 258 259 259 258 256 254 253 254 256 257 256 256 256 254 252 251 252 251 251 251 251 251 254 261 264 268 267 262 261 267 265 263
242 248 254 259 259 260 261 260 257 256 256 257 257 257 257 255 250 251 254 255 256 257 257 256 254 256 259 254 254 253 250 250 250 250 256 261 263 262 257 259 261 269 269
249 254 260 261 261 260 261 260 258 256 256 254 253 254 255 254 255 254 256 256 256 256 257 257 256 253 256 254 258 260 257 251 249 251 255 254 259 259 262 260 259 263 268
256 260 261 261 261 261 261 259 258 257 256 255 254 254 255 256 255 256 255 257 256 256 256 257 257 256 255 251 253 255 254 252 250 253 255 253 260 258 258 257 252 252 259
258 261 262 262 263 263 261 258 258 258 255 256 255 255 257 256 256 257 260 257 256 255 255 255 256 257 254 252 254 256 254 251 248 248 253 257 259 262 256 252 254 261 268
260 263 263 262 261 260 258 258 259 258 257 256 257 255 256 257 254 255 258 259 255 256 256 255 255 255 256 257 258 257 257 258 256 253 255 258 259 258 255 249 248 249 262
265 267 266 262 259 258 258 260 261 258 256 258 258 256 256 257 256 255 255 254 256 258 257 255 254 254 258 255 254 256 257 260 262 260 257 257 257 255 243 236 237 241 253
274 272 269 265 262 261 261 260 260 259 258 258 259 258 257 257 256 253 252 251 253 257 258 257 254 253 258 258 257 257 261 267 265 262 263 260 256 251 240 235 236 236 241
277 274 272 270 267 262 260 260 258 255 256 257 258 260 259 258 258 255 253 255 257 257 258 259 259 259 260 260 258 260 265 269 263 261 260 257 254 251 247 245 245 246 248
283 279 277 274 270 263 258 258 258 254 253 256 255 258 262 263 262 259 258 258 258 257 259 261 265 264 263 259 257 259 259 258 257 256 257 258 257 256 253 254 252 255 259
281 282 279 276 273 268 263 258 255 254 254 255 256 258 262 264 262 260 258 260 259 258 262 263 263 261 259 259 259 254 250 252 253 257 258 260 263 256 249 248 249 249 259
283 281 282 280 276 273 269 265 262 259 256 257 258 259 259 262 263 267 267 264 260 259 264 261 260 258 254 252 253 255 253 250 252 255 259 259 256 255 251 247 249 249 252
287 287 287 285 281 277 279 282 274 270 271 262 261 263 263 266 273 272 271 272 271 266 262 256 256 255 256 255 254 255 254 252 252 254 255 257 253 252 254 252 248 245 247
283 288 289 285 284 284 283 285 290 290 277 268 266 268 269 271 272 273 273 271 266 260 254 252 254 254 255 254 253 253 254 256 255 255 255 254 254 252 250 249 246 247 250
288 291 291 287 288 287 286 286 286 288 294 294 286 278 280 280 280 279 279 277 265 254 253 255 257 254 254 254 254 256 258 259 256 255 255 254 252 254 251 247 245 246 250
294 296 297 296 292 291 293 293 289 285 288 294 300 296 291 288 285 281 280 268 263 262 261 261 262 259 256 254 254 254 256 257 257 256 256 255 251 250 252 252 249 249 250
297 302 308 302 297 297 298 297 297 297 295 297 298 303 306 296 288 285 279 270 262 262 263 266 266 264 259 253 251 252 253 254 254 254 256 255 252 250 251 252 250 247 248
304 308 310 307 303 303 301 301 303 304 305 304 303 305 304 299 291 288 287 279 272 269 269 270 270 270 263 254 252 251 252 254 253 253 253 253 252 251 250 249 250 248 248
305 305 308 308 309 308 305 306 310 310 309 308 310 312 313 304 295 293 291 289 285 279 274 272 269 268 265 257 254 254 254 255 254 254 255 254 251 250 250 248 245 248 247
307 307 309 309 308 310 314 314 313 312 312 311 312 312 313 311 305 302 301 299 296 289 283 277 275 276 275 268 261 255 253 253 253 254 254 254 252 248 246 246 246 246 246
307 305 306 306 308 310 313 315 315 314 314 314 314 313 313 311 309 308 308 305 302 299 294 287 282 280 283 280 272 265 260 260 259 253 250 249 249 248 246 244 246 246 245
303 302 303 305 306 309 312 314 315 316 317 317 317 315 315 315 315 315 314 313 311 308 306 300 289 286 284 283 278 274 273 274 272 266 257 250 247 245 243 243 243 246 246
311 309 308 308 308 309 310 313 315 317 317 317 317 316 316 318 318 319 319 318 319 317 313 307 302 300 296 290 284 283 283 283 280 276 267 254 245 240 240 240 244 243 244
Height
1490 1492 1493 1493 1494 1494 1494 1494 1495 1495 1495 1495 1495 1495 1495 1495 1495 1495 1495 1495 1494 1494 1494 1495 1495 1495 1495 1496 1496 1496 1496 1497 1495 1493 1494 1494 1494 1493 1492 1493 1492 1492 1492
1487 1488 1488 1489 1489 1490 1490 1490 1490 1490 1490 1490 1490 1490 1490 1490 1490 1489 1489 1489 1489 1489 1489 1489 1489 1490 1490 1490 1490 1491 1491 1491 1490 1488 1488 1488 1488 1488 1487 1487 1486 1486 1486
1483 1483 1484 1484 1484 1485 1485 1485 1485 1485 1484 1484 1484 1484 1484 1484 1484 1484 1484 1484 1484 1483 1483 1484 1484 1484 1484 1484 1485 1485 1485 1485 1485 1484 1482 1482 1482 1482 1482 1481 1481 1480 1480
1478 1479 1479 1479 1480 1480 1480 1480 1480 1479 1479 1479 1479 1479 1479 1478 1478 1478 1478 1478 1478 1478 1478 1477 1478 1478 1478 1479 1479 1479 1479 1479 1479 1478 1477 1477 1476 1476 1476 1475 1474 1474 1474
1474 1474 1475 1475 1475 1475 1474 1474 1474 1474 1474 1474 1473 1473 1473 1472 1472 1472 1472 1472 1472 1472 1471 1471 1471 1471 1472 1473 1473 1473 1473 1473 1473 1472 1471 1471 1470 1470 1470 1469 1469 1468 1468
1470 1470 1470 1470 1470 1469 1469 1469 1469 1468 1468 1468 1468 1467 1466 1466 1466 1466 1466 1466 1466 1465 1465 1465 1465 1465 1465 1466 1466 1466 1467 1467 1466 1466 1465 1464 1464 1464 1464 1464 1463 1463 1462
1465 1465 1465 1465 1464 1464 1464 1463 1463 1462 1462 1462 1462 1461 1460 1460 1460 1460 1460 1460 1459 1459 1459 1459 1458 1458 1458 1459 1459 1459 1459 1459 1460 1460 1459 1458 1458 1458 1458 1458 1457 1456 1455
1460 1460 1460 1459 1458 1458 1458 1457 1457 1457 1456 1456 1455 1455 1454 1453 1453 1453 1453 1453 1453 1452 1452 1452 1452 1451 1452 1452 1452 1452 1451 1451 1452 1452 1451 1451 1451 1451 1452 1452 1451 1450 1449
1455 1455 1454 1454 1453 1452 1452 1452 1451 1451 1450 1449 1449 1448 1447 1446 1447 1447 1447 1446 1446 1445 1445 1445 1445 1445 1445 1446 1446 1445 1444 1443 1444 1444 1444 1444 1444 1444 1445 1445 1444 1444 1442
1450 1450 1449 1448 1447 1446 1446 1446 1445 1445 1444 1443 1442 1441 1440 1440 1440 1440 1440 1440 1439 1438 1438 1438 1438 1438 1439 1439 1439 1438 1437 1437 1437 1437 1436 1436 1436 1436 1436 1437 1437 1437 1436
1445 1444 1444 1443 1442 1441 1440 1440 1439 1438 1437 1437 1435 1434 1434 1433 1433 1433 1433 1434 1433 1432 1431 1431 1431 1431 1431 1431 1432 1431 1430 1431 1430 1430 1429 1428 1428 1428 1428 1429 1430 1430 1429
1440 1439 1438 1437 1436 1435 1434 1434 1433 1432 1431 1430 1429 1427 1427 1426 1426 1426 1426 1427 1427 1426 1425 1424 1424 1424 1424 1424 1425 1424 1424 1424 1424 1423 1421 1420 1420 1420 1421 1421 1422 1423 1423
1436 1434 1433 1432 1431 1430 1429 1428 1427 1426 1425 1423 1422 1421 1420 1420 1419 1419 1419 1419 1419 1419 1418 1418 1418 1418 1417 1417 1417 1417 1417 1416 1416 1415 1413 1412 1413 1413 1414 1414 1415 1415 1416
1431 1430 1428 1427 1425 1424 1423 1422 1421 1420 1418 1417 1416 1415 1414 1413 1413 1413 1413 1413 1413 1412 1412 1411 1411 1411 1411 1410 1409 1409 1409 1408 1408 1407 1406 1406 1406 1407 1406 1407 1407 1407 1407
1427 1425 1424 1422 1421 1419 1418 1417 1415 1413 1412 1411 1410 1409 1408 1407 1406 1407 1407 1407 1406 1406 1406 1405 1404 1404 1403 1401 1401 1401 1401 1401 1400 1399 1399 1399 1399 1399 1399 1399 1400 1400 1400
1423 1421 1420 1418 1416 1415 1413 1411 1409 1408 1405 1404 1404 1403 1402 1401 1401 1401 1401 1400 1400 1400 1400 1398 1397 1396 1395 1394 1394 1393 1393 1393 1393 1392 1392 1392 1392 1392 1392 1392 1393 1393 1392
1420 1418 1416 1414 1412 1410 1408 1406 1404 1402 1400 1399 1398 1397 1396 1395 1395 1394 1394 1393 1393 1393 1392 1391 1390 1389 1388 1388 1387 1387 1386 1386 1386 1385 1385 1385 1385 1385 1385 1385 1385 1385 1385
1416 1415 1413 1411 1409 1407 1405 1402 1400 1397 1395 1393 1393 1392 1391 1389 1388 1388 1387 1387 1386 1385 1384 1384 1383 1382 1381 1381 1380 1379 1379 1379 1379 1379 1378 1378 1378 1379 1379 1378 1379 1379 1379
1413 1411 1410 1408 1406 1403 1401 1399 1397 1394 1392 1389 1387 1386 1385 1384 1383 1382 1381 1380 1379 1378 1377 1377 1376 1375 1375 1374 1373 1373 1373 1372 1372 1372 1372 1372 1372 1372 1372 1372 1373 1373 1374
1411 1409 1407 1405 1403 1400 1398 1396 1393 1391 1388 1386 1383 1381 1380 1378 1377 1376 1375 1374 1373 1372 1371 1370 1369 1369 1368 1367 1367 1367 1366 1366 1365 1366 1366 1366 1365 1366 1366 1366 1366 1367 1367
1408 1406 1404 1402 1400 1398 1395 1393 1390 1388 1385 1383 1380 1378 1376 1374 1372 1371 1370 1369 1368 1366 1365 1364 1363 1362 1362 1361 1361 1360 1360 1359 1359 1359 1359 1359 1359 1359 1359 1359 1360 1361 1361
1406 1404 1402 1400 1398 1395 1393 1390 1388 1385 1382 1380 1377 1375 1373 1371 1369 1368 1366 1364 1363 1361 1360 1359 1358 1357 1356 1355 1355 1354 1353 1352 1353 1353 1353 1353 1353 1353 1353 1353 1354 1355 1355
1404 1402 1400 1398 1395 1393 1390 1388 1385 1383 1380 1377 1375 1372 1370 1368 1366 1364 1362 1360 1359 1357 1356 1354 1352 1351 1350 1349 1349 1348 1347 1347 1347 1347 1347 1347 1347 1347 1347 1348 1348 1349 1349
1402 1400 1398 1395 1393 1390 1388 1386 1383 1381 1378 1375 1373 1370 1368 1365 1363 1361 1359 1357 1355 1353 1351 1349 1347 1346 1345 1344 1343 1343 1342 1342 1342 1341 1341 1341 1341 1341 1341 1342 1342 1343 1343
1400 1397 1395 1393 1391 1388 1386 1383 1381 1378 1376 1373 1371 1368 1366 1363 1360 1358 1356 1353 1351 1349 1347 1345 1343 1341 1340 1339 1338 1337 1337 1336 1336 1336 1335 1335 1335 1335 1336 1336 1337 1337 1337
1397 1395 1393 1391 1388 1386 1384 1381 1379 1376 1374 1371 1369 1366 1363 1361 1358 1356 1353 1350 1348 1346 1343 1341 1339 1337 1336 1334 1333 1332 1331 1331 1330 1330 1330 1330 1330 1330 1331 1331 1331 1331 1331